Location: Habighorst
(52.7089°N, 10.2278°E)
Time: 05:45:03
(UTC+00:00)

Cosmos 1844 Rocket - Pass Details

Date: 13 January 2026
Orbit: 822 x 845 km, 71.0° (Epoch: 18 February)

Event Time Altitude Azimuth Distance (km) Brightness Sun altitude
Exits shadow 03:22:53 31° 39° (NE) 1,451 4.2 -35.7°
Drops below altitude 10° 03:25:44 10° 34° (NE) 2,473 5.6 -35.3°
Sets 03:28:12 0° 33° (NNE) 3,414 6.4 -34.9°
